Lid_Strength_Index
9 12 14 12 11 10 11 12 13 11 8 10 11 11 10 8 9 9 9 8 8 8 7 5 3 3 2 2 2 3 2 3 2 2 3 3 2 2 1 1 0 0 0 0
12 14 10 9 9 9 10 12 12 11 9 10 11 11 10 9 9 9 8 8 8 8 6 4 4 3 3 3 2 3 3 4 2 2 2 3 3 2 2 1 1 2 1 0
13 10 8 8 9 10 10 11 12 12 10 10 11 12 12 9 8 8 8 8 7 7 7 5 4 4 3 3 3 3 3 3 5 4 2 3 3 2 3 2 2 1 1 1
11 9 9 9 10 9 13 9 10 10 12 15 10 16 13 11 10 9 8 9 8 7 7 5 4 4 3 3 3 3 2 3 2 2 3 3 4 5 4 2 2 1 1 1
11 10 10 10 9 8 10 8 10 10 13 14 12 15 13 12 12 11 9 9 8 7 6 6 5 4 3 3 3 3 2 2 2 2 2 2 4 4 3 3 3 2 1 1
10 7 9 9 7 8 7 10 11 12 14 17 13 14 14 13 12 11 9 7 7 7 7 6 4 5 5 4 3 3 3 3 2 3 3 2 3 3 3 3 3 2 1 1
10 9 8 7 10 8 10 13 17 19 19 17 12 14 12 9 8 8 7 8 7 7 6 5 5 5 6 5 5 4 3 3 3 3 3 3 3 3 3 2 2 2 2 2
15 16 10 8 10 12 12 14 18 21 21 17 13 17 13 8 7 7 6 8 7 6 5 5 5 5 5 4 4 3 4 4 3 3 3 3 3 3 2 2 2 2 2 1
14 14 8 8 8 9 12 15 12 16 16 19 16 13 10 8 8 7 7 7 8 7 6 6 6 6 6 5 4 3 3 4 3 3 2 3 3 3 2 2 2 2 1 1
11 16 10 8 8 8 11 10 17 16 21 22 18 16 15 12 10 8 7 8 7 7 7 6 6 6 6 5 4 5 4 4 3 3 3 3 2 2 2 3 2 3 2 1
11 13 13 10 12 13 12 14 14 14 16 20 21 17 11 11 9 9 7 7 7 7 6 6 7 7 6 6 5 5 5 4 4 4 3 3 2 2 2 2 1 1 1 2
11 13 16 13 9 8 10 13 13 17 18 17 17 17 9 9 8 7 7 6 6 6 6 6 5 5 6 7 5 4 4 4 3 3 3 2 2 2 3 3 2 1 1 1
10 14 17 15 12 10 12 12 12 13 14 18 19 17 8 8 8 8 7 6 6 5 5 5 6 6 5 5 5 5 3 3 3 3 3 3 3 3 3 2 2 1 1 1
7 13 14 17 14 12 14 12 11 13 17 16 16 14 10 10 9 8 7 6 6 6 5 5 5 5 5 4 4 4 4 5 5 4 5 4 4 4 3 3 2 2 1 1
10 14 13 12 11 11 12 11 11 13 13 16 14 13 12 10 9 8 7 7 7 6 6 5 5 5 4 4 5 4 5 4 4 4 4 4 4 4 4 4 4 3 1 1
10 14 13 14 11 11 12 11 11 12 12 13 12 13 9 8 8 8 7 7 7 6 6 5 4 4 5 5 4 4 5 5 5 4 4 4 4 3 4 4 4 4 3 2
13 14 15 17 12 12 16 14 13 12 11 12 15 12 9 9 8 8 8 7 7 6 6 6 6 6 6 6 5 5 4 4 5 5 4 3 3 3 3 3 3 3 3 2
13 13 14 16 14 20 13 9 10 12 11 10 10 9 8 8 8 7 7 8 7 7 7 7 6 6 6 6 5 4 4 4 4 5 4 4 3 3 3 3 3 3 3 3
10 13 15 18 18 14 13 11 11 12 13 9 10 9 8 7 8 8 7 7 7 7 6 6 6 6 6 6 5 5 5 5 4 4 4 3 4 4 4 4 3 3 4 3
9 9 13 15 18 22 13 9 7 8 16 9 8 9 9 8 12 10 7 6 6 5 6 6 5 5 6 6 5 6 5 4 4 4 3 3 4 4 4 4 4 3 3 3
14 13 16 15 18 14 10 8 7 16 14 8 8 8 8 9 9 7 6 6 6 6 7 6 6 6 6 5 5 6 5 5 4 3 3 3 3 3 3 3 3 3 4 3
14 15 17 15 17 18 8 9 13 10 9 8 8 8 8 8 7 7 8 9 9 9 8 8 8 7 6 5 6 6 6 5 4 3 3 4 3 3 3 3 4 4 4 5
15 12 14 13 14 9 8 9 8 8 9 8 9 8 8 8 9 9 10 10 10 9 9 9 10 9 8 7 7 6 6 5 4 4 4 4 4 3 3 4 4 4 5 5
10 9 14 12 10 10 9 8 7 8 9 8 8 8 8 9 9 10 12 12 12 11 11 11 12 12 11 9 8 7 7 5 5 5 4 4 4 4 4 3 3 4 4 3
10 10 12 13 10 10 8 8 8 8 8 8 8 8 8 9 11 12 12 13 13 12 12 13 13 12 13 11 10 8 7 7 6 6 5 5 4 4 4 4 4 4 2 2
10 12 16 16 11 11 10 8 8 9 9 8 8 8 9 11 12 13 14 13 12 12 12 13 13 14 14 13 12 10 8 7 7 7 5 6 5 4 4 4 4 7 7 7